CLX50 OPKC-UCFM

Flight info

Callsign CLX50
Flight time N/A
Altitude 37000
Route BADUL1D/25R BADUL B466 NH Z302 PS P500 ATROL/N0496F380 P500 GERRY/N0496F370 P500 MOTMO/N0495F380 P500 FIRUZ/K0915F380 G500 POMIR/K0913F370 B496 ASMAN L142 OSH M34 GASTA JETTO1
Aircraft B48F/H-SDE3FGHIM1M2RWXY/LB1

Departure

Time 2026-05-05 10:31
Airport Jinnah International Airport (OPKC)

Arrival

Time N/A
Airport Manas International Airport (UCFM)
Time Latitude Longitude Altitude Speed Heading
2026-05-05 10:24 24.90308 67.16044 97 ft 0 kts 164°
2026-05-05 10:24 24.90305 67.16047 97 ft 2 kts 150°
2026-05-05 10:24 24.90301 67.16066 100 ft 1 kts 87°
2026-05-05 10:25 24.90309 67.16085 100 ft 7 kts 70°
2026-05-05 10:25 24.90317 67.16115 99 ft 0 kts 72°
2026-05-05 10:26 24.90320 67.16126 98 ft 4 kts 72°
2026-05-05 10:26 24.90338 67.16176 100 ft 10 kts 69°
2026-05-05 10:26 24.90367 67.16268 100 ft 15 kts 73°
2026-05-05 10:27 24.90402 67.16403 100 ft 21 kts 75°
2026-05-05 10:27 24.90446 67.16579 102 ft 26 kts 75°
2026-05-05 10:27 24.90497 67.16781 104 ft 29 kts 74°
2026-05-05 10:27 24.90552 67.16994 102 ft 28 kts 74°
2026-05-05 10:28 24.90604 67.17198 104 ft 27 kts 75°
2026-05-05 10:28 24.90655 67.17393 105 ft 26 kts 71°
2026-05-05 10:28 24.90751 67.17552 105 ft 25 kts 46°
2026-05-05 10:28 24.90871 67.17687 105 ft 24 kts 45°
2026-05-05 10:29 24.90982 67.17810 110 ft 21 kts 45°
2026-05-05 10:29 24.91093 67.17893 110 ft 17 kts
2026-05-05 10:29 24.91172 67.17841 112 ft 12 kts 300°
2026-05-05 10:29 24.91207 67.17763 113 ft 11 kts 286°
2026-05-05 10:30 24.91208 67.17684 113 ft 10 kts 261°
2026-05-05 10:30 24.91193 67.17609 112 ft 11 kts 256°
2026-05-05 10:30 24.91134 67.17401 111 ft 65 kts 255°
2026-05-05 10:30 24.90934 67.16587 105 ft 151 kts 254°
2026-05-05 10:31 24.90619 67.15285 124 ft 206 kts 256°
2026-05-05 10:31 24.90303 67.13861 777 ft 200 kts 252°
2026-05-05 10:31 24.90322 67.12336 1486 ft 205 kts 282°
2026-05-05 10:31 24.91021 67.10927 2183 ft 219 kts 313°
2026-05-05 10:32 24.92340 67.10023 2890 ft 233 kts 346°
2026-05-05 10:32 24.93986 67.10008 3617 ft 247 kts 19°
2026-05-05 10:32 24.95498 67.10993 4376 ft 267 kts 49°
2026-05-05 10:32 24.96661 67.12722 5172 ft 297 kts 59°
2026-05-05 10:33 24.97762 67.14783 5980 ft 327 kts 60°
2026-05-05 10:33 24.98984 67.17012 6846 ft 353 kts 57°
2026-05-05 10:33 25.00413 67.19322 7751 ft 376 kts 55°
2026-05-05 10:33 25.01948 67.21756 8677 ft 397 kts 55°
2026-05-05 10:34 25.03515 67.24354 9631 ft 417 kts 56°
2026-05-05 10:34 25.05137 67.27095 10487 ft 435 kts 56°
2026-05-05 10:34 25.06841 67.29923 11368 ft 451 kts 55°
2026-05-05 10:34 25.08614 67.32834 12269 ft 464 kts 54°
2026-05-05 10:35 25.10550 67.35725 13182 ft 473 kts 46°
2026-05-05 10:35 25.12975 67.38215 14066 ft 481 kts 39°
2026-05-05 10:35 25.15559 67.40613 14911 ft 488 kts 38°
2026-05-05 10:35 25.18199 67.43013 15770 ft 495 kts 38°
2026-05-05 10:36 25.20863 67.45463 16672 ft 501 kts 38°
2026-05-05 10:36 25.23536 67.47958 17570 ft 506 kts 38°
2026-05-05 10:36 25.26255 67.50462 18445 ft 510 kts 37°
2026-05-05 10:36 25.29013 67.52952 19248 ft 513 kts 37°
2026-05-05 10:37 25.31788 67.55471 20099 ft 516 kts 37°
2026-05-05 10:37 25.34562 67.58025 20962 ft 519 kts 37°
2026-05-05 10:37 25.37344 67.60586 21836 ft 521 kts 36°
2026-05-05 10:37 25.40141 67.63141 22745 ft 522 kts 36°
2026-05-05 10:38 25.42935 67.65693 23612 ft 522 kts 36°
2026-05-05 10:38 25.45738 67.68266 24399 ft 523 kts 36°
2026-05-05 10:38 25.48541 67.70845 25200 ft 523 kts 35°
2026-05-05 10:38 25.51308 67.73386 26019 ft 523 kts 34°
2026-05-05 10:39 25.54105 67.75954 26859 ft 522 kts 34°
2026-05-05 10:39 25.56904 67.78526 27738 ft 521 kts 34°
2026-05-05 10:39 25.59686 67.81089 28628 ft 519 kts 33°
2026-05-05 10:39 25.62458 67.83642 29561 ft 517 kts 33°
2026-05-05 10:40 25.65216 67.86182 30389 ft 514 kts 33°
2026-05-05 10:40 25.67962 67.88712 31201 ft 512 kts 33°
2026-05-05 10:40 25.70688 67.91226 32026 ft 508 kts 33°
2026-05-05 10:40 25.73395 67.93727 32879 ft 504 kts 33°
2026-05-05 10:41 25.76078 67.96206 33734 ft 499 kts 33°
2026-05-05 10:41 25.78686 67.98616 34488 ft 494 kts 33°
2026-05-05 10:41 25.81354 68.01083 35280 ft 487 kts 33°
2026-05-05 10:41 25.83940 68.03476 36060 ft 480 kts 33°
2026-05-05 10:42 25.88984 68.08146 37509 ft 468 kts 32°
2026-05-05 10:42 25.91496 68.10467 37772 ft 473 kts 33°
2026-05-05 10:42 25.94060 68.12837 37769 ft 484 kts 33°
2026-05-05 10:43 25.96677 68.15267 37767 ft 495 kts 33°
2026-05-05 10:43 26.02075 68.20285 37775 ft 516 kts 33°
2026-05-05 10:44 26.07701 68.25513 37776 ft 537 kts 33°
2026-05-05 10:44 26.13533 68.30948 37770 ft 553 kts 34°
2026-05-05 10:45 26.19436 68.36375 37774 ft 548 kts 28°
2026-05-05 10:45 26.26072 68.40184 37779 ft 520 kts 12°
2026-05-05 10:45 26.29464 68.41466 37748 ft 508 kts 12°
2026-05-05 10:46 26.32733 68.42694 37743 ft 496 kts 11°
2026-05-05 10:46 26.39301 68.45133 37745 ft 498 kts 11°
2026-05-05 10:47 26.45889 68.47618 37749 ft 499 kts 11°
2026-05-05 10:47 26.52447 68.50074 37750 ft 499 kts 11°
2026-05-05 10:48 26.59032 68.52553 37759 ft 499 kts 11°
2026-05-05 10:48 26.65616 68.55031 37764 ft 499 kts 11°
2026-05-05 10:49 26.72188 68.57508 37763 ft 498 kts 11°
2026-05-05 10:49 26.78759 68.59987 37762 ft 498 kts 11°
2026-05-05 10:50 26.85331 68.62469 37763 ft 498 kts 11°
2026-05-05 10:50 26.91895 68.64952 37763 ft 498 kts 11°
2026-05-05 10:51 26.98455 68.67435 37763 ft 498 kts 11°
2026-05-05 10:51 27.02842 68.69098 37761 ft 498 kts 11°